User: anonymous   Login
Location: Demmingen
(48.6757°N, 10.4375°E)
Time: 21:02:48
(UTC+00:00)
Language:

Cosmos 1980 Rocket - Orbit

View from above orbital plane
View from above orbital plane
View from above satellite
View from above satellite

Ground track
Ground track

The orbit data is extracted from the following two-line orbital elements,

1 19650U 88102B   24205.62575069  .00000122  00000-0  85852-4 0  9990
2 19650  71.0017 321.3294 0015002 203.8952 156.1476 14.15988769842798
Epoch (UTC): 23 July 2024 15:01:04
Eccentricity: 0.0015002
inclination: 71.0017°
perigee height: 828 km
apogee height: 850 km
right ascension of ascending node: 321.3294°
argument of perigee: 203.8952°
revolutions per day: 14.15988769
mean anomaly at epoch: 156.1476°
orbit number at epoch: 84279

The dashed part of the orbit path shows where the satellite is in the earth's shadow,  

DLR